GFSFLT1_925_rhum_156.txt.gz
RH
33 34 42 42 49 51 52 57 60 57 55 57 56 58 58 59 59 59 65 67 74 77 82 85 93 95 88 84 86 87 90 87
34 40 44 45 51 53 53 55 59 59 60 58 61 62 61 59 59 63 65 73 75 84 86 91 89 94 96 93 94 87 84 86
35 37 44 48 52 54 54 56 59 65 66 61 66 65 62 62 65 66 71 76 84 87 93 94 96 98 97 96 99 98 88 80
35 37 44 47 54 56 57 56 60 67 69 68 69 65 65 68 72 75 79 82 87 91 92 97 98 99 100 100 100 99 98 88
33 36 42 47 54 59 59 55 60 66 71 74 72 72 72 74 78 80 82 84 87 88 98 94 99 99 100 100 99 100 99 96
35 38 42 47 51 56 60 52 55 67 70 76 77 78 77 78 81 82 85 87 88 93 95 95 97 100 100 99 100 100 100 100
36 40 43 47 53 55 57 50 50 63 70 76 80 81 81 82 85 89 90 90 91 96 95 94 96 98 99 100 100 100 100 100
38 38 37 46 53 55 51 46 49 61 71 78 84 86 87 88 91 95 96 95 96 96 97 96 96 98 99 100 99 100 100 100
38 38 40 46 51 59 59 54 55 60 69 75 83 89 91 91 88 94 97 100 98 93 98 96 98 97 98 98 99 100 100 99
44 44 48 51 54 63 68 71 74 65 66 66 75 80 79 77 78 83 87 94 96 93 93 94 95 97 100 98 99 100 100 100
50 52 55 67 77 66 81 76 85 75 73 72 75 79 79 80 78 82 88 91 90 94 95 96 96 97 100 100 100 100 100 100
79 59 72 76 68 62 73 79 52 69 85 84 79 68 76 80 87 85 75 65 88 93 93 98 97 99 100 100 100 100 100 99
100 96 82 81 79 79 80 78 87 72 50 77 88 69 58 55 65 74 58 52 59 84 94 92 94 96 97 100 100 100 100 99
96 85 94 89 83 72 88 81 78 85 67 53 66 85 62 55 55 62 58 48 56 58 76 87 82 84 94 97 98 100 99 98
81 89 90 96 91 83 62 73 75 64 66 69 56 57 52 54 51 52 53 51 51 59 68 80 74 70 73 88 95 100 95 99
66 68 78 86 88 78 77 73 67 61 55 48 49 50 50 48 49 50 50 51 49 49 59 74 84 72 63 68 83 93 96 100
54 51 47 46 56 47 41 39 37 38 39 44 43 46 46 46 46 50 51 54 55 53 53 68 86 89 66 62 63 80 94 98
48 44 37 36 36 36 41 40 38 36 36 38 42 44 45 45 48 50 54 55 58 62 59 62 78 90 89 60 63 69 82 96
46 45 37 34 34 36 37 38 40 39 39 40 43 46 50 52 52 54 56 60 62 67 73 69 76 84 90 77 63 65 77 86

GFSFLT1_925_rhum_159.txt.gz
RH
40 42 44 50 52 53 55 59 61 61 60 62 62 63 63 66 64 69 70 74 80 80 91 88 82 92 96 94 96 91 87 87
43 46 48 53 54 55 57 61 64 64 66 68 66 66 66 69 71 74 74 80 82 87 93 94 94 98 99 99 99 98 94 86
46 50 50 54 55 58 58 62 66 68 72 70 70 69 71 76 78 81 83 81 86 88 96 95 93 98 98 100 100 100 98 91
45 51 55 56 58 59 57 62 65 70 72 74 74 76 79 83 85 83 86 87 89 93 91 96 93 98 100 100 100 100 98 96
44 52 58 59 60 59 56 58 62 73 74 77 80 82 84 84 86 88 90 86 92 91 95 90 97 97 98 99 99 99 100 98
51 54 54 55 59 60 57 55 63 73 76 79 82 84 86 88 91 93 94 92 96 94 94 96 97 98 99 99 99 100 100 100
49 48 52 56 56 56 48 57 65 72 77 82 87 89 90 91 92 96 98 98 98 95 97 98 98 99 99 98 99 99 98 99
52 52 58 57 58 55 48 55 66 71 77 80 88 90 81 84 85 89 97 100 99 97 97 97 98 99 97 98 97 99 100 100
55 55 54 58 64 62 58 63 67 68 71 76 80 78 80 74 80 88 90 94 97 90 97 100 97 99 98 95 98 100 100 100
62 58 56 62 67 68 68 69 71 71 68 69 79 74 64 53 52 53 77 87 93 85 88 94 100 98 100 100 100 97 99 100
66 72 64 69 76 70 43 56 78 81 68 44 62 61 64 70 60 58 51 66 77 76 79 88 89 94 100 100 100 100 100 100
83 83 62 65 77 81 69 32 57 79 86 74 55 53 60 66 58 59 55 49 58 70 78 77 74 95 97 100 100 100 100 100
97 85 76 77 76 78 89 72 44 40 64 83 74 58 52 61 61 58 58 54 51 64 68 71 70 61 81 92 96 97 100 100
99 93 84 86 74 81 73 83 80 63 53 66 70 64 53 53 63 66 58 58 54 57 67 71 72 66 55 76 93 94 94 100
92 98 92 90 80 74 75 80 72 67 67 54 53 58 54 52 53 55 56 57 56 56 69 77 81 70 63 62 78 94 94 96
87 94 95 93 93 76 53 63 60 58 65 58 52 48 48 50 52 54 55 56 59 57 68 76 89 81 73 66 69 90 97 94
75 74 79 77 75 73 72 59 56 46 44 46 46 48 46 51 53 56 58 59 61 63 63 81 88 92 71 77 74 80 95 94
66 64 58 53 61 58 49 44 46 41 42 44 46 48 51 51 54 58 61 60 52 66 68 79 86 92 89 80 82 83 87 96
62 58 49 47 43 41 40 39 38 39 42 46 50 53 56 59 61 63 68 73 76 75 78 81 86 86 90 89 86 89 88 91

GFSFLT1_925_rhum_162.txt.gz
RH
54 54 52 53 56 59 59 59 60 61 61 62 64 66 69 70 75 78 78 82 82 87 90 90 87 87 96 99 100 99 98 96
57 56 54 56 59 59 60 58 64 64 66 68 71 75 77 79 84 82 85 84 92 92 91 95 95 93 96 97 98 99 98 97
59 61 57 59 60 60 60 61 63 66 67 72 74 75 80 82 85 85 87 86 91 87 95 94 94 98 98 99 100 99 99 99
61 67 63 60 61 61 62 66 69 70 69 68 71 74 78 82 87 88 88 92 90 90 90 94 97 98 99 99 100 100 99 98
61 68 67 61 62 61 61 66 71 70 67 70 78 84 89 86 88 90 94 95 90 94 95 99 97 98 98 99 99 100 100 98
66 67 66 63 62 60 62 66 71 71 68 74 79 83 77 69 76 89 94 96 93 88 96 97 97 99 98 99 98 98 99 100
60 65 66 64 56 59 63 67 73 71 66 76 71 70 79 74 75 84 90 99 95 89 93 97 95 97 97 97 98 99 98 99
62 68 69 62 52 62 67 69 76 72 68 69 74 72 50 51 67 80 83 96 92 87 90 97 98 99 96 96 97 98 98 100
68 66 70 64 56 61 66 70 75 70 70 75 66 31 38 41 44 65 75 86 79 74 78 85 90 94 100 97 99 100 97 98
62 67 75 73 69 67 70 73 72 68 66 65 57 56 50 51 43 42 57 62 74 62 64 65 72 82 91 99 100 95 99 99
71 78 82 73 68 62 66 77 76 44 45 47 53 63 57 56 50 44 47 56 60 61 60 51 60 70 82 88 96 98 98 97
82 79 83 78 74 52 32 76 82 64 53 52 53 63 66 57 58 52 47 54 62 67 73 68 46 58 71 75 90 90 98 100
91 81 84 86 87 74 38 38 62 81 74 63 54 56 67 61 64 60 51 52 64 70 73 69 46 48 54 62 74 90 97 100
95 91 90 84 86 86 82 60 52 56 70 73 59 55 68 69 80 72 56 44 62 71 76 80 75 47 54 63 70 80 91 97
91 92 96 82 82 79 84 77 68 57 60 58 56 57 58 56 60 65 59 44 62 73 79 81 81 82 53 68 76 82 89 96
88 90 96 88 71 65 75 73 72 71 57 52 53 54 54 54 55 56 55 45 55 68 77 85 89 84 87 65 81 89 90 93
87 85 82 93 84 70 56 68 66 61 60 55 51 52 53 55 56 52 48 48 55 67 85 88 92 91 88 84 83 91 96 90
84 84 78 72 71 54 67 58 51 48 49 51 51 51 55 57 56 45 57 58 62 75 86 88 91 90 84 85 88 90 96 99
78 79 74 62 47 65 62 62 58 51 50 53 55 54 57 61 64 65 70 67 69 76 87 90 87 90 89 82 84 85 90 95

GFSFLT1_925_rhum_165.txt.gz
RH
62 62 61 59 59 58 56 57 59 61 62 62 63 64 70 72 76 78 79 80 77 79 82 83 87 93 98 97 98 98 97 98
64 65 64 62 61 59 57 55 62 60 64 70 72 75 76 78 80 81 83 81 82 82 81 86 94 98 99 99 99 99 97 98
70 69 65 62 63 63 61 59 63 64 64 68 74 75 78 80 82 85 87 82 86 99 89 94 97 99 98 98 100 99 99 99
73 73 67 64 66 64 63 61 61 62 66 71 72 70 62 73 80 85 90 80 80 94 98 95 100 100 100 100 100 100 99 98
70 73 72 67 69 66 66 68 65 63 62 61 62 65 71 77 83 83 89 82 80 85 96 98 99 100 98 100 99 100 100 98
76 73 71 69 68 68 70 69 67 65 66 64 56 60 61 59 63 68 85 84 81 81 89 96 91 100 97 100 100 99 99 100
71 73 75 70 69 68 68 68 69 62 61 57 52 42 45 48 54 56 66 66 70 75 80 86 89 96 98 98 91 100 99 99
73 72 66 68 71 72 72 69 71 62 56 55 26 27 30 41 52 59 63 62 61 59 64 78 86 91 99 94 91 99 97 100
70 69 67 67 71 73 71 68 69 62 59 34 36 38 34 37 46 50 57 62 54 47 54 66 80 83 85 92 89 98 92 91
71 72 68 71 72 71 68 68 68 62 59 48 52 51 44 39 40 46 54 53 53 38 43 56 65 70 74 79 84 90 100 100
78 84 79 76 74 75 71 68 60 49 49 51 62 61 54 47 40 46 53 54 48 35 39 39 55 58 61 65 72 80 92 100
86 89 81 76 74 75 77 69 41 43 48 57 67 69 63 53 47 44 56 60 60 44 37 36 40 48 53 66 78 82 91 99
93 92 89 76 54 43 68 80 62 55 56 57 64 72 66 60 54 43 57 67 71 69 67 46 41 48 58 66 80 89 96 100
91 95 98 95 71 43 42 61 69 73 66 57 67 73 70 71 66 46 50 67 77 80 79 85 59 52 58 70 81 87 91 94
89 95 96 96 86 69 49 54 55 70 70 63 64 60 70 77 75 56 42 65 78 84 86 90 89 71 62 71 77 82 87 90
85 89 91 94 93 89 83 67 58 60 58 62 68 59 57 58 59 51 39 56 69 81 87 93 93 86 88 73 82 85 86 89
84 78 87 85 90 83 83 75 71 60 58 58 59 59 58 57 52 45 42 56 67 78 82 84 86 88 90 93 86 92 94 86
83 80 82 84 73 58 72 68 67 69 64 61 58 56 57 56 41 48 55 66 73 84 88 88 89 86 87 89 93 94 99 97
88 87 80 81 68 51 48 61 63 63 60 61 56 56 57 55 53 63 63 67 79 84 87 89 90 92 88 88 88 87 91 98